Wichita Jabara, KS

6:24 PM CDT on September 22, 2019 (GMT -0500)
Col Jabara

Weather History for KAAO - August, 2019

Change the Weather History Date:

Wednesday, August 21, 2019

  Actual Average (WUND) Record (WUND)
Temperature  
Mean Temperature 77 °F -  
Max Temperature 89 °F - - (-1)
Min Temperature 66 °F - - (-1)
Cooling Degree Days 12    
Growing Degree Days 27 (Base 50)    
Moisture  
Dew Point 69 °F    
Average Humidity 78    
Maximum Humidity 100    
Minimum Humidity 55    
Precipitation  
Precipitation 1.06 in - - ()
Sea Level Pressure  
Sea Level Pressure 29.96 in    
Wind  
Wind Speed 8 mph ()    
Max Wind Speed 24 mph    
Max Gust Speed 32 mph    
Visibility 8.6 miles    
Events Rain , Thunderstorm    
Averages and records for this station are not official NWS values.
T = Trace of Precipitation, MM = Missing Value Source: Averaged Metar Reports

Daily Weather History Graph

Daily Weather History Graph

Search for Another Location

Airport or City:

Astronomy

Aug. 21, 2019 Rise Set
Actual Time 6:49 AM CDT 8:13 PM CDT
Civil Twilight 6:21 AM CDT 8:41 PM CDT
Nautical Twilight 5:48 AM CDT 9:14 PM CDT
Astronomical Twilight 5:14 AM CDT 9:48 PM CDT
Moon 11:38 PM CDT (8/21) 12:20 PM CDT (8/21)
Length of Visible Light 14h 19m
Length of Day
13h 24m
Waning Gibbous, 69% of the Moon is Illuminated
Aug 21
Waning Gibbous
Aug 23
Last Quarter
Aug 30
New
Sep 5
First Quarter
Sep 13
Full

Hourly Weather History & Observations

Time (CDT) Temp. Heat Index Dew Point Humidity Pressure Visibility Wind Dir Wind Speed Gust Speed Precip Events Conditions
12:54 AM 84.0 °F 89.6 °F 72.0 °F 67% 29.93 in 10.0 mi South 10.4 mph - N/A   Clear
1:54 AM 81.0 °F 85.2 °F 72.0 °F 74% 29.90 in 10.0 mi South 8.1 mph - N/A   Clear
2:54 AM 81.0 °F 84.9 °F 71.1 °F 72% 29.88 in 10.0 mi South 9.2 mph - N/A   Clear
3:54 AM 78.1 °F - 71.1 °F 79% 29.91 in 10.0 mi South 5.8 mph - N/A   Clear
4:54 AM 79.0 °F - 70.0 °F 74% 29.91 in 10.0 mi SSW 8.1 mph - N/A   Clear
5:54 AM 80.1 °F 82.9 °F 69.1 °F 69% 29.93 in 10.0 mi SW 10.4 mph - N/A   Clear
6:54 AM 78.1 °F - 69.1 °F 74% 29.94 in 10.0 mi SSW 6.9 mph - N/A   Clear
7:54 AM 80.1 °F 83.6 °F 71.1 °F 74% 29.96 in 10.0 mi South 3.5 mph - N/A   Clear
8:54 AM 78.1 °F - 72.0 °F 81% 29.98 in 10.0 mi ENE 11.5 mph 21.9 mph N/A   Partly Cloudy
9:54 AM 82.0 °F 86.7 °F 72.0 °F 71% 29.99 in 10.0 mi East 6.9 mph - N/A   Mostly Cloudy
10:54 AM 82.9 °F 88.0 °F 72.0 °F 69% 30.01 in 10.0 mi East 9.2 mph - N/A   Partly Cloudy
11:54 AM 86.0 °F 91.5 °F 71.1 °F 61% 30.03 in 10.0 mi ENE 4.6 mph - N/A   Scattered Clouds
12:54 PM 88.0 °F 94.7 °F 72.0 °F 59% 30.01 in 10.0 mi NNE 8.1 mph - N/A   Clear
1:54 PM 86.0 °F 93.0 °F 73.0 °F 65% 29.97 in 10.0 mi ENE 9.2 mph - N/A   Clear
2:54 PM 86.0 °F 91.5 °F 71.1 °F 61% 29.93 in 10.0 mi ESE 11.5 mph 18.4 mph N/A   Clear
3:54 PM 88.0 °F 92.9 °F 70.0 °F 55% 29.90 in 10.0 mi SE 11.5 mph - N/A   Clear
4:54 PM 87.1 °F 93.6 °F 72.0 °F 61% 29.88 in 10.0 mi ESE 6.9 mph - N/A   Clear
5:54 PM 84.9 °F 92.1 °F 73.9 °F 69% 29.87 in 10.0 mi ENE 6.9 mph - N/A   Clear
6:54 PM 84.0 °F 90.2 °F 73.0 °F 69% 29.89 in 10.0 mi NE 11.5 mph - N/A   Scattered Clouds
7:09 PM 82.0 °F 87.4 °F 73.0 °F 74% 29.91 in 10.0 mi NE 19.6 mph 27.6 mph N/A Thunderstorm Mostly Cloudy
7:54 PM 78.1 °F - 73.0 °F 84% 29.88 in 10.0 mi NE 13.8 mph - N/A Thunderstorm Thunderstorm
8:27 PM 71.1 °F - 66.0 °F 84% 30.01 in 7.0 mi NW 18.4 mph 31.1 mph 0.04 in Rain , Thunderstorm Thunderstorms and Rain
8:33 PM 69.1 °F - 66.0 °F 90% 30.03 in 2.0 mi NNW 24.2 mph 32.2 mph 0.23 in Rain , Thunderstorm Heavy Thunderstorms and Rain
8:40 PM 66.9 °F - 66.0 °F 97% 30.05 in 1.0 mi North 11.5 mph 32.2 mph 0.49 in Rain , Thunderstorm Heavy Thunderstorms and Rain
8:50 PM 66.2 °F - 66.2 °F 100% 30.09 in 0.8 mi ESE 4.6 mph - 0.87 in Rain , Thunderstorm Heavy Thunderstorms and Rain
8:54 PM 66.9 °F - 66.9 °F 100% 30.06 in 1.0 mi SE 5.8 mph - 0.91 in Rain , Thunderstorm Heavy Thunderstorms and Rain
9:00 PM 66.9 °F - 66.9 °F 100% 30.07 in 3.0 mi Variable 6.9 mph - 0.03 in Rain , Thunderstorm Heavy Thunderstorms and Rain
9:09 PM 68.0 °F - 66.0 °F 93% 30.04 in 5.0 mi South 8.1 mph - 0.07 in Rain , Thunderstorm Heavy Thunderstorms and Rain
9:54 PM 69.1 °F - 64.9 °F 87% 29.96 in 10.0 mi SSE 6.9 mph - 0.13 in Rain , Thunderstorm Light Thunderstorms and Rain
10:31 PM 72.0 °F - 64.9 °F 78% 29.98 in 10.0 mi East 11.5 mph 25.3 mph 0.01 in Rain , Thunderstorm Light Rain
10:54 PM 70.0 °F - 66.9 °F 90% 29.96 in 10.0 mi WNW 5.8 mph - 0.02 in Rain , Thunderstorm Light Rain
11:07 PM 72.0 °F - 64.9 °F 78% 30.00 in 10.0 mi Variable 4.6 mph 27.6 mph 0.00 in Rain , Thunderstorm Light Thunderstorms and Rain
11:26 PM 70.0 °F - 66.9 °F 90% 29.99 in 10.0 mi North - - 0.00 in Rain Light Rain
11:40 PM 69.1 °F - 66.0 °F 90% 29.96 in 10.0 mi SE 4.6 mph - 0.00 in Rain , Thunderstorm Light Rain
11:54 PM 69.1 °F - 66.9 °F 93% 29.93 in 10.0 mi North 10.4 mph - 0.00 in Rain Light Rain